Content
SEND FEEDBACK

Daily
Averages
Monthly
Summary
United States of America

BAYOU LA BATRE, ALABAMA


Home > North America > United States > Alabama
Elevation: 0 feet     Latitude: 30 23N     Longitude: 088 14W

WEATHER
 
SELECT A DAY
Number of Records: 195,975;   Date Range: 8/14/97 - 9/18/14
 
SHARE

PRINT THIS DATA

[ ← Previous Day ]
WEATHER ALMANAC - MARCH 5, 2014
[ Next Day → ]
[ °C ]   °F
Weather ElementAverageHighLow
Temperature50.2 °F60.1 °F (1:53 pm)39 °F (12:53 am)
Dewpoint45.5 °F50 °F (12:53 pm)37.9 °F (12:53 am)
Humidity84.6 %97 % (1:53 am)69 % (1:53 pm)
Barometer30.06 in30.11 in (6:53 am)30.00 in (2:18 pm)
Wind Speed6.7 mph10.4 mph (8:53 am)
Weather ElementAverage
Visibility8 mi
Wind DirectionE (92.1 °)

Weather ElementTotal
Precipitation0.06 in
Heating Degree Days15.5 (Base 65)
Averaged from 33 records on March 5, 2014
WEATHER CONDITIONS BREAKOUT
WIND DIRECTION BREAKOUT
WEATHER BY HOUR - MARCH 5, 2014
[ °C ]   °F
Local TimeTemperatureDewpointHumidityBarometerVisibilityWind DirectionWind SpeedGust SpeedPrecipitationEventsConditions
12:53 AM39.0 °F37.9 °F96 %30.10 in6.0 miNNE (20°)5.8 mphOvercast
1:53 AM39.9 °F39.0 °F97 %30.08 in5.0 miNE (50°)4.6 mphOvercast
2:53 AM39.9 °F39.0 °F97 %30.06 in5.0 miNNE (20°)6.9 mphOvercast
3:53 AM41.0 °F39.9 °F96 %30.07 in6.0 miNorth (10°)6.9 mphOvercast
4:53 AM41.0 °F39.9 °F96 %30.07 in6.0 miNorth (360°)8.1 mphOvercast
5:53 AM41.0 °F39.9 °F96 %30.09 in6.0 miNorth (10°)8.1 mphOvercast
6:53 AM42.1 °F39.9 °F92 %30.11 in6.0 miNNE (20°)8.1 mphOvercast
7:32 AM42.1 °F41.0 °F96 %30.11 in2.5 miNE (40°)5.8 mphOvercast
7:53 AM42.1 °F41.0 °F96 %30.11 in2.0 miNE (40°)6.9 mphOvercast
8:17 AM43.0 °F42.1 °F97 %30.11 in4.0 miENE (70°)8.1 mphOvercast
8:53 AM46.0 °F43.0 °F89 %30.11 in7.0 miENE (60°)10.4 mphOvercast
9:18 AM46.9 °F44.1 °F90 %30.10 in8.0 miENE (70°)9.2 mphOvercast
9:28 AM48.9 °F45.0 °F86 %30.10 in8.0 miNNE (20°)8.1 mphOvercast
9:49 AM51.8 °F46.4 °F82 %30.09 in9.0 miNE (50°)8.1 mphOvercast
9:53 AM51.1 °F46.0 °F83 %30.09 in9.0 miENE (60°)6.9 mphOvercast
10:53 AM53.1 °F46.9 °F80 %30.09 in10.0 miVariable4.6 mphOvercast
11:13 AM54.0 °F46.9 °F77 %30.09 in10.0 miEast (100°)3.5 mphOvercast
11:53 AM55.0 °F48.0 °F77 %30.07 in10.0 miENE (60°)4.6 mphOvercast
12:53 PM59.0 °F50.0 °F72 %30.04 in10.0 miNNE (20°)6.9 mphOvercast
1:53 PM60.1 °F50.0 °F69 %30.02 in10.0 miNNW (340°)6.9 mphOvercast
2:18 PM59.0 °F48.9 °F69 %30.00 in10.0 miNorth (350°)9.2 mphOvercast
2:53 PM57.9 °F48.9 °F72 %30.01 in10.0 miNorth (10°)10.4 mphOvercast
3:13 PM57.9 °F48.9 °F72 %30.01 in10.0 miNorth (10°)10.4 mphMostly Cloudy
3:43 PM57.0 °F48.9 °F74 %30.01 in10.0 miNNE (30°)10.4 mphScattered Clouds
3:53 PM57.0 °F48.9 °F74 %30.02 in10.0 miNE (40°)9.2 mphScattered Clouds
4:53 PM55.9 °F48.0 °F75 %30.03 in10.0 miNorth (10°)6.9 mphOvercast
5:53 PM54.0 °F48.0 °F80 %30.03 in10.0 miNNE (20°)6.9 mphOvercast
6:53 PM54.0 °F48.0 °F80 %30.03 in10.0 miNorth (360°)3.5 mphOvercast
7:53 PM54.0 °F48.9 °F83 %30.05 in10.0 miCalmOvercast
8:53 PM54.0 °F48.9 °F83 %30.03 in10.0 miNorth (360°)4.6 mphOvercast
9:53 PM54.0 °F48.0 °F80 %30.04 in10.0 miNNE (20°)3.5 mphOvercast
10:53 PM52.0 °F50.0 °F93 %30.04 in7.0 miNorth (360°)3.5 mph0.01 inRainLight Rain
11:53 PM52.0 °F50.0 °F93 %30.02 in6.0 miNE (50°)3.5 mph0.05 inRainLight Rain
Hourly data recorded from KPQL, located miles away from Bayou La Batre, Alabama







STORIES FROM OUR PARTNERS